{"data":{"norad_id":65843,"epoch":"2026-05-25T03:11:55.004064Z","epoch_age_seconds":59460,"freshness":"FRESH","line1":"1 65843U 25221W   26145.13327551  .00024742  00000+0  74087-3 0  9990","line2":"2 65843  53.1582  92.8146 0001142  95.7457 264.3676 15.34405232 36447","mean_motion":15.34405232,"eccentricity":0.0001142,"inclination_deg":53.1582,"raan_deg":92.8146,"arg_perigee_deg":95.7457,"mean_anomaly_deg":264.3676,"bstar":0.00074087,"rev_number":3644,"period_min":93.847438080164,"perigee_km":461.90646746514,"apogee_km":463.46891182426,"semimajor_km":6840.8246896447,"source":"CELESTRAK","updated_at":"2026-05-25T13:38:20.946213Z"}}